Location: Albuquerque Trailhead
(34.7934°N, 106.3736°W)
Time: 23:22:40
(UTC+00:00)

Cosmos 2369 Rocket - Pass Details

Date: 20 June 2021
Orbit: 827 x 854 km, 71.0° (Epoch: 01 August)

Event Time Altitude Azimuth Distance (km) Brightness Sun altitude
Rises 09:01:25 0° 326° (NW) 3,426 5.7 -25.8°
Reaches altitude 10° 09:04:09 10° 316° (NW) 2,485 4.8 -25.5°
Enters shadow 09:07:30 26° 284° (WNW) 1,619 3.5 -25.1°
